Location: Cosy Dell
(34.2789°N, 117.4537°W)
Time: 20:36:17
(UTC+00:00)

Meteor 1-23 Rocket - Pass Details

Date: 14 July 2020
Orbit: 838 x 887 km, 81.3° (Epoch: 13 August)

Event Time Altitude Azimuth Distance (km) Brightness Sun altitude
Rises 11:00:30 0° 345° (NNW) 3,466 7.8 -19.0°
Reaches altitude 10° 11:02:59 10° 341° (NNW) 2,531 7.0 -18.6°
Maximum altitude 11:08:32 52° 267° (W) 1,087 4.5 -17.8°
Enters shadow 11:11:48 24° 202° (SSW) 1,729 5.3 -17.3°
